Location: Casteau
(50.5142°N, 4.0161°E)
Time: 05:00:18
(UTC+00:00)

USA 234 - Pass Details

Date: 18 September 2020
Orbit: 1102 x 1106 km, 123.0° (Epoch: 16 October)

Event Time Altitude Azimuth Distance (km) Brightness Sun altitude
Exits shadow 20:19:21 - 60° (ENE) 3,019 5.3 -23.1°
Reaches altitude 10° 20:19:29 10° 60° (ENE) 2,968 5.3 -23.1°
Maximum altitude 20:26:01 66° 143° (SE) 1,195 3.1 -24.0°
Drops below altitude 10° 20:32:31 10° 225° (SW) 2,959 5.6 -24.8°
Sets 20:35:01 0° 228° (SW) 3,915 6.3 -25.1°
